OBJECT A, 63291

Orbit data source: Space-Track

You're viewing an Uncataloged Satellite

Recently launched and/or uncataloged satellites may have evolving metadata. Metadata may include but not limited to: Owner, Maufacturer, Bus, Motor, and Mission.

OBJECT A, 63291 is a satellite owned by Yunyao yuhang (CN) in SSO that was launched on Mon, 17 Mar 2025 UTC via a GUSHENXING 1 launch vehicle from the Jiuquan Satellite Launch Center, China (JSC). Unknown objects in Earth's orbit typically refer to objects detected orbiting the Earth but have not yet been identified or cataloged. These objects could be anything from previously untracked satellites, spent rocket stages, debris from satellite collisions, or even natural meteoroids temporarily captured by Earth's gravity.

Loading next visibility...
Identifier
63291, 2025-055A
Orbit
SSO
Last TLE update
9 hours ago
Origin
Flag of CNYYAO (CN / PRC)
Manufacturer
Changguang WJ
Mission
Operational Commercial Meteo Radio Occ.
Bus & Motor
YY-1, Unknown motor
Mass
~50 kg wet, ~50 kg dry
Launch date (UTC)
2025-03-17 (4 months ago)
Launch vehicle
GUSHENXING 1
Launch site
Jiuquan Satellite Launch Center, China (JSC)
Object type
Unknown
Shape & HBR
Box + 1 Pan, 5 m
Radar Cross Section
5.339 m², Medium (>0.1 m² and < 1m²)

Expand to show TLE details & history

TLE from 9 hours ago
0 OBJECT A
1 63291U 25055A   25184.17255969  .00005373  00000-0  34377-3 0  9997
2 63291  97.6151 318.8846 0016684 262.3079  97.6255 15.08905562 16286
Epoch: 2025-07-03T04:08Z
TLE epoch observation values (Epoch: 2025-07-03T04:08:29.157Z)
Latitude
-0°
Longitude
-24.68001°
Altitude
544.163 km
Speed
7.589 km/s
True Right ascension
21h 15m 32s
True Declination
0° 00' 00"
Sunlit
Object was in full shadow at epoch
Visualization orbit readout
Latitude
-56.3019°
Longitude
-12.79458°
Altitude
552.826 km
Speed
7.589 km/s
Apparent Right ascension
16h 37m 26s
Apparent Declination
-69° 34' 39"
Sunlit
Object is in full shadow
Visualization observer readout
Local Sidereal Time
01:13:10
Azimuth
205.152° SW
Elevation
-50.311°
Doppler factor
1
Orbital elements
Apogee altitude
548.069 km
Perigee altitude
524.996 km
Semi-major axis
6,914.67 km
Eccentricity
0.00167
Inclination
97.6151°
RAAN
318.8846°
Arg. of periapsis
262.3079°
True anomaly
Unknown
Mean anomaly
97.6255°
Eccentric anomaly
Unknown
Mean motion
3.77473 °/min
Orbital period
95.37 mins
BSTAR
0.00034377
Loading maneuver chart data...
Loading SW <> Apogee altitude chart data...
Loading historical data...
Loading historical data...
Loading historical data...
Loading historical data...
Loading historical data...
Loading historical data...
Loading historical data...

OBJECT A Visibility forecast

Observer location: undefined°, undefined°

Span
Click to sort rows by Start time (UTC) header in descending order
Start Az.
Max El. time (UTC)
Max El. Az.
Max El.
End time (UTC)
End Az.
6 mins2025-07-03 22:13:21.254Z353.613° N2025-07-03 22:15:21.254Z308.745° NW36.279°2025-07-03 22:19:21.254Z211.503° SW
6 mins2025-07-04 08:55:21.254Z159.175° S2025-07-04 08:58:21.254Z41.044° NE43.5°2025-07-04 09:01:21.254Z352.371° N
|